| time (UTC) | temp F | wind direction | speed knots | gust knots | rain 1hr in | rain 24hr in | rain mn in | humidity % | barometer mb |
| 20260902191530 | 98 | 243 | 0.0 | 1.7 | 0.00 | 0.00 | 0.00 | 47 | 1014.0 |
| 20260902190027 | 96 | 198 | 0.0 | 3.5 | 0.00 | 0.00 | 0.00 | 46 | 1014.2 |
| 20260902184526 | 97 | 138 | 0.0 | 0.9 | 0.00 | 0.00 | 0.00 | 47 | 1014.4 |
| 20260902183028 | 96 | 166 | 0.0 | 7.8 | 0.00 | 0.00 | 0.00 | 48 | 1014.5 |
| 20260902181523 | 96 | 215 | 0.0 | 7.0 | 0.00 | 0.00 | 0.00 | 47 | 1014.6 |
| 20260902180020 | 95 | 280 | 0.0 | 9.6 | 0.00 | 0.00 | 0.00 | 50 | 1014.7 |
| 20260902174523 | 95 | 169 | 0.0 | 0.0 | 0.00 | 0.00 | 0.00 | 53 | 1014.9 |
| 20260902173021 | 95 | 232 | 0.0 | 8.7 | 0.00 | 0.00 | 0.00 | 51 | 1015.2 |
| 20260902171516 | 94 | 260 | 0.0 | 2.6 | 0.00 | 0.00 | 0.00 | 53 | 1015.4 |
| 20260902170011 | 94 | 360 | 0.0 | 6.1 | 0.00 | 0.00 | 0.00 | 53 | 1015.7 |
| 20260902164507 | 94 | 330 | 0.9 | 9.6 | 0.00 | 0.00 | 0.00 | 51 | 1015.8 |
| 20260902163004 | 94 | 228 | 0.0 | 6.1 | 0.00 | 0.00 | 0.00 | 53 | 1015.8 |
| 20260902161602 | 92 | 199 | 0.0 | 2.6 | 0.00 | 0.00 | 0.00 | 55 | 1015.8 |
| 20260902160108 | 92 | 203 | 0.0 | 6.1 | 0.00 | 0.00 | 0.00 | 54 | 1016.0 |
| 20260902154554 | 91 | 213 | 0.0 | 2.6 | 0.00 | 0.00 | 0.00 | 57 | 1016.1 |
| 20260902153054 | 90 | 221 | 0.0 | 7.0 | 0.00 | 0.00 | 0.00 | 57 | 1015.9 |
| 20260902151548 | 90 | 327 | 0.0 | 7.8 | 0.00 | 0.00 | 0.00 | 58 | 1015.8 |
| 20260902150046 | 89 | 229 | 0.0 | 2.6 | 0.00 | 0.00 | 0.00 | 60 | 1015.9 |
| 20260902144542 | 88 | 256 | 0.0 | 4.3 | 0.00 | 0.00 | 0.00 | 60 | 1015.9 |
| 20260902143041 | 87 | 230 | 0.0 | 4.3 | 0.00 | 0.00 | 0.00 | 63 | 1015.9 |
| 20260902141537 | 86 | 254 | 0.0 | 1.7 | 0.00 | 0.00 | 0.00 | 64 | 1015.9 |
| 20260902140032 | 85 | 237 | 0.0 | 0.9 | 0.00 | 0.00 | 0.00 | 67 | 1016.0 |
| 20260902134535 | 84 | 196 | 0.0 | 1.7 | 0.00 | 0.00 | 0.00 | 68 | 1016.2 |
| 20260902133030 | 83 | 313 | 0.0 | 0.0 | 0.00 | 0.00 | 0.00 | 69 | 1016.2 |
| 20260902131539 | 82 | 245 | 0.0 | 1.7 | 0.00 | 0.00 | 0.00 | 70 | 1016.3 |
| 20260902130027 | 82 | 209 | 0.0 | 0.0 | 0.00 | 0.00 | 0.00 | 70 | 1016.1 |
| 20260902124528 | 81 | 313 | 0.0 | 0.0 | 0.00 | 0.00 | 0.00 | 71 | 1016.0 |
| 20260902123029 | 81 | 313 | 0.0 | 0.0 | 0.00 | 0.00 | 0.00 | 71 | 1015.9 |
| 20260902121524 | 80 | 314 | 0.0 | 0.0 | 0.00 | 0.00 | 0.00 | 71 | 1015.8 |
| 20260902120022 | 80 | 167 | 0.0 | 0.0 | 0.00 | 0.00 | 0.00 | 71 | 1015.7 |
| 20260902114520 | 81 | 166 | 0.0 | 0.0 | 0.00 | 0.00 | 0.00 | 70 | 1015.5 |
| 20260902113018 | 81 | 166 | 0.0 | 0.0 | 0.00 | 0.00 | 0.00 | 70 | 1015.5 |
| 20260902111518 | 81 | 166 | 0.0 | 0.0 | 0.00 | 0.00 | 0.00 | 69 | 1015.4 |
| 20260902110020 | 82 | 190 | 0.0 | 3.5 | 0.00 | 0.00 | 0.00 | 68 | 1015.2 |
| 20260902104514 | 82 | 224 | 0.0 | 0.0 | 0.00 | 0.00 | 0.00 | 68 | 1015.2 |
| 20260902103013 | 82 | 213 | 0.0 | 1.7 | 0.00 | 0.00 | 0.00 | 68 | 1015.2 |
| 20260902101513 | 82 | 213 | 0.0 | 0.9 | 0.00 | 0.00 | 0.00 | 67 | 1015.1 |
| 20260902100014 | 82 | 219 | 0.0 | 0.0 | 0.00 | 0.00 | 0.00 | 67 | 1015.0 |
| 20260902094510 | 83 | 217 | 0.0 | 0.9 | 0.00 | 0.00 | 0.00 | 67 | 1014.9 |
| 20260902093019 | 82 | 182 | 0.0 | 7.0 | 0.00 | 0.00 | 0.00 | 68 | 1014.8 |
| 20260902091509 | 82 | 259 | 0.0 | 0.9 | 0.00 | 0.00 | 0.00 | 69 | 1014.8 |
| 20260902090008 | 81 | 211 | 0.0 | 1.7 | 0.00 | 0.00 | 0.00 | 71 | 1014.6 |
| 20260902084508 | 81 | 211 | 0.0 | 0.0 | 0.00 | 0.00 | 0.00 | 70 | 1014.7 |
| 20260902083006 | 81 | 211 | 0.0 | 0.0 | 0.00 | 0.00 | 0.00 | 71 | 1014.6 |
| 20260902081506 | 82 | 211 | 0.0 | 0.0 | 0.00 | 0.00 | 0.00 | 71 | 1014.6 |
| 20260902080004 | 82 | 211 | 0.0 | 0.0 | 0.00 | 0.00 | 0.00 | 71 | 1014.5 |
| 20260902074503 | 82 | 211 | 0.0 | 0.0 | 0.00 | 0.00 | 0.00 | 70 | 1014.6 |
| 20260902073002 | 82 | 211 | 0.0 | 0.0 | 0.00 | 0.00 | 0.00 | 70 | 1014.7 |
| 20260902071502 | 82 | 211 | 0.0 | 0.0 | 0.00 | 0.00 | 0.00 | 70 | 1014.7 |
| 20260902070100 | 82 | 211 | 0.0 | 0.0 | 0.00 | 0.00 | 0.00 | 70 | 1014.7 |
| 20260902064559 | 82 | 211 | 0.0 | 0.0 | 0.00 | 0.00 | 0.00 | 70 | 1014.7 |
| 20260902063059 | 83 | 211 | 0.0 | 0.0 | 0.00 | 0.00 | 0.00 | 70 | 1014.8 |
| 20260902060059 | 83 | 211 | 0.0 | 0.0 | 0.00 | 0.00 | 0.00 | 69 | 1014.8 |
| 20260902054610 | 83 | 211 | 0.0 | 0.0 | 0.00 | 0.00 | 0.00 | 68 | 1014.8 |
| 20260902053102 | 84 | 200 | 0.0 | 1.7 | 0.00 | 0.00 | 0.00 | 68 | 1014.7 |
| 20260902051549 | 84 | 192 | 0.0 | 0.0 | 0.00 | 0.00 | 0.00 | 67 | 1014.7 |
| 20260902050048 | 84 | 225 | 0.0 | 0.0 | 0.00 | 0.00 | 0.00 | 66 | 1014.7 |
| 20260902044551 | 85 | 215 | 0.0 | 2.6 | 0.00 | 0.00 | 0.00 | 65 | 1014.6 |
| 20260902043047 | 85 | 156 | 0.0 | 0.9 | 0.00 | 0.00 | 0.00 | 65 | 1014.5 |
| 20260902041548 | 85 | 216 | 0.0 | 0.9 | 0.00 | 0.00 | 0.00 | 64 | 1014.5 |
| 20260902040049 | 86 | 147 | 0.0 | 0.9 | 0.00 | 0.00 | 0.00 | 63 | 1014.6 |
| 20260902034545 | 86 | 209 | 0.0 | 0.0 | 0.00 | 0.00 | 0.00 | 62 | 1014.7 |
| 20260902033045 | 86 | 156 | 0.0 | 0.9 | 0.00 | 0.00 | 0.00 | 61 | 1014.6 |
| 20260902031546 | 87 | 150 | 0.0 | 0.0 | 0.00 | 0.00 | 0.00 | 60 | 1014.6 |
| 20260902030043 | 87 | 329 | 0.0 | 0.0 | 0.00 | 0.00 | 0.00 | 58 | 1014.6 |
| 20260902024544 | 87 | 138 | 0.0 | 0.0 | 0.00 | 0.00 | 0.00 | 57 | 1014.5 |
| 20260902023052 | 88 | 169 | 0.0 | 0.0 | 0.00 | 0.00 | 0.00 | 56 | 1014.3 |
| 20260902021542 | 88 | 153 | 0.0 | 0.9 | 0.00 | 0.00 | 0.00 | 56 | 1014.2 |
| 20260902020042 | 89 | 146 | 0.0 | 0.0 | 0.00 | 0.00 | 0.00 | 56 | 1014.0 |
| 20260902014541 | 89 | 123 | 0.0 | 0.0 | 0.00 | 0.00 | 0.00 | 56 | 1013.9 |
| 20260902013051 | 90 | 184 | 0.0 | 1.7 | 0.00 | 0.00 | 0.00 | 55 | 1013.7 |
| 20260902011540 | 91 | 146 | 0.0 | 0.9 | 0.00 | 0.00 | 0.00 | 54 | 1013.7 |
| 20260902010039 | 91 | 192 | 0.0 | 0.9 | 0.00 | 0.00 | 0.00 | 52 | 1013.5 |
| 20260902004539 | 92 | 148 | 0.0 | 0.9 | 0.00 | 0.00 | 0.00 | 50 | 1013.4 |
| 20260902003041 | 93 | 159 | 0.0 | 6.1 | 0.00 | 0.00 | 0.00 | 49 | 1013.4 |
| 20260902001553 | 94 | 132 | 0.0 | 0.0 | 0.00 | 0.00 | 0.00 | 48 | 1013.5 |
| 20260902000040 | 94 | 150 | 0.0 | 7.0 | 0.00 | 0.00 | 0.00 | 47 | 1013.5 |
| 20260901234536 | 95 | 187 | 0.0 | 3.5 | 0.00 | 0.00 | 0.00 | 47 | 1013.6 |
| 20260901233036 | 95 | 142 | 0.0 | 6.1 | 0.00 | 0.00 | 0.00 | 46 | 1013.6 |
| 20260901231535 | 95 | 135 | 0.0 | 6.1 | 0.00 | 0.00 | 0.00 | 45 | 1013.6 |
| 20260901230036 | 96 | 140 | 0.0 | 0.0 | 0.00 | 0.00 | 0.00 | 43 | 1013.7 |
| 20260901224535 | 97 | 169 | 0.0 | 0.0 | 0.00 | 0.00 | 0.00 | 41 | 1013.6 |
| 20260901223036 | 98 | 282 | 0.0 | 0.0 | 0.00 | 0.00 | 0.00 | 41 | 1013.6 |
| 20260901221542 | 99 | 181 | 0.0 | 0.0 | 0.00 | 0.00 | 0.00 | 40 | 1013.6 |
| 20260901220032 | 99 | 158 | 0.0 | 0.9 | 0.00 | 0.00 | 0.00 | 40 | 1013.6 |
| 20260901214532 | 99 | 207 | 0.0 | 2.6 | 0.00 | 0.00 | 0.00 | 40 | 1013.5 |
| 20260901213032 | 99 | 207 | 0.0 | 1.7 | 0.00 | 0.00 | 0.00 | 38 | 1013.5 |
| 20260901211530 | 99 | 229 | 0.0 | 6.1 | 0.00 | 0.00 | 0.00 | 40 | 1013.6 |
| 20260901210028 | 99 | 265 | 0.0 | 0.9 | 0.00 | 0.00 | 0.00 | 39 | 1013.7 |
| 20260901204524 | 99 | 217 | 0.0 | 3.5 | 0.00 | 0.00 | 0.00 | 38 | 1014.0 |
| 20260901203026 | 99 | 151 | 0.0 | 0.9 | 0.00 | 0.00 | 0.00 | 39 | 1014.2 |
| 20260901201522 | 99 | 130 | 0.0 | 1.7 | 0.00 | 0.00 | 0.00 | 39 | 1014.3 |
| 20260901200019 | 99 | 216 | 0.0 | 0.9 | 0.00 | 0.00 | 0.00 | 40 | 1014.5 |
| 20260901194518 | 98 | 231 | 0.0 | 4.3 | 0.00 | 0.00 | 0.00 | 39 | 1014.6 |
| 20260901193015 | 98 | 19 | 0.0 | 0.0 | 0.00 | 0.00 | 0.00 | 38 | 1014.8 |